Time,TemperatureF,DewpointF,PressureIn,WindDirection,WindDirectionDegrees,WindSpeedMPH,WindSpeedGustMPH,Humidity,HourlyPrecipIn,Conditions,Clouds,dailyrainin,SoftwareType,DateUTC
2013-03-30 00:03:00,41.3,28.1,30.15,West,269,0.0,1.0,59,0.00,,---,0.00,VWS V13.01,2013-03-30 06:03:00,
2013-03-30 00:09:00,41.5,28.3,30.15,NE,53,0.0,2.0,59,0.00,,---,0.00,VWS V13.01,2013-03-30 06:09:00,
2013-03-30 00:14:00,41.5,28.3,30.15,NE,41,0.0,0.0,59,0.00,,---,0.00,VWS V13.01,2013-03-30 06:14:00,
2013-03-30 00:19:00,41.3,28.1,30.14,NNE,17,0.0,0.0,59,0.00,,---,0.00,VWS V13.01,2013-03-30 06:19:00,
2013-03-30 00:24:00,41.2,28.0,30.14,NNE,17,0.0,0.0,59,0.00,,---,0.00,VWS V13.01,2013-03-30 06:24:00,
2013-03-30 00:30:00,41.1,27.9,30.14,North,355,0.0,0.0,59,0.00,,---,0.00,VWS V13.01,2013-03-30 06:30:00,
2013-03-30 00:35:00,40.8,28.0,30.15,North,355,0.0,0.0,60,0.00,,---,0.00,VWS V13.01,2013-03-30 06:35:00,
2013-03-30 00:40:00,40.5,27.7,30.15,North,355,0.0,0.0,60,0.00,,---,0.00,VWS V13.01,2013-03-30 06:40:00,
2013-03-30 00:45:00,40.2,27.4,30.15,North,355,0.0,0.0,60,0.00,,---,0.00,VWS V13.01,2013-03-30 06:45:00,
2013-03-30 00:50:00,39.9,27.6,30.16,North,355,0.0,0.0,61,0.00,,---,0.00,VWS V13.01,2013-03-30 06:50:00,
2013-03-30 00:55:00,39.6,27.7,30.16,NE,44,0.0,0.0,62,0.00,,---,0.00,VWS V13.01,2013-03-30 06:55:00,
2013-03-30 01:01:00,39.3,27.4,30.16,NE,44,0.0,1.0,62,0.00,,---,0.00,VWS V13.01,2013-03-30 07:01:00,
2013-03-30 01:06:00,39.1,27.6,30.16,NE,44,0.0,0.0,63,0.00,,---,0.00,VWS V13.01,2013-03-30 07:06:00,
2013-03-30 01:11:00,38.9,27.4,30.16,NE,44,0.0,0.0,63,0.00,,---,0.00,VWS V13.01,2013-03-30 07:11:00,
2013-03-30 01:16:00,38.6,27.1,30.16,NE,44,0.0,0.0,63,0.00,,---,0.00,VWS V13.01,2013-03-30 07:16:00,
2013-03-30 01:21:00,38.3,26.8,30.16,NE,44,0.0,0.0,63,0.00,,---,0.00,VWS V13.01,2013-03-30 07:21:00,
2013-03-30 01:26:00,38.2,27.1,30.16,NE,44,0.0,0.0,64,0.00,,---,0.00,VWS V13.01,2013-03-30 07:26:00,
2013-03-30 01:32:00,37.9,26.8,30.16,NE,44,0.0,0.0,64,0.00,,---,0.00,VWS V13.01,2013-03-30 07:32:00,
2013-03-30 01:37:00,37.8,26.7,30.16,NW,304,0.0,0.0,64,0.00,,---,0.00,VWS V13.01,2013-03-30 07:37:00,
2013-03-30 01:42:00,37.6,26.5,30.16,NW,304,0.0,0.0,64,0.00,,---,0.00,VWS V13.01,2013-03-30 07:42:00,
2013-03-30 01:47:00,37.8,26.7,30.16,ESE,111,0.0,0.0,64,0.00,,---,0.00,VWS V13.01,2013-03-30 07:47:00,
2013-03-30 01:52:00,37.8,26.7,30.16,SE,129,0.0,0.0,64,0.00,,---,0.00,VWS V13.01,2013-03-30 07:52:00,
2013-03-30 01:57:00,37.6,26.5,30.16,SE,129,0.0,0.0,64,0.00,,---,0.00,VWS V13.01,2013-03-30 07:57:00,
2013-03-30 02:02:00,37.3,26.6,30.16,SE,129,0.0,0.0,65,0.00,,---,0.00,VWS V13.01,2013-03-30 08:02:00,
2013-03-30 02:08:00,37.2,26.5,30.16,NNE,23,0.0,0.0,65,0.00,,---,0.00,VWS V13.01,2013-03-30 08:08:00,
2013-03-30 02:13:00,37.2,26.9,30.16,NNE,30,0.0,3.0,66,0.00,,---,0.00,VWS V13.01,2013-03-30 08:13:00,
2013-03-30 02:18:00,37.5,26.8,30.16,East,82,0.0,2.0,65,0.00,,---,0.00,VWS V13.01,2013-03-30 08:18:00,
2013-03-30 02:24:00,37.6,26.9,30.16,NNE,13,0.0,1.0,65,0.00,,---,0.00,VWS V13.01,2013-03-30 08:24:00,
2013-03-30 02:29:00,37.9,27.2,30.16,NNE,13,0.0,0.0,65,0.00,,---,0.00,VWS V13.01,2013-03-30 08:29:00,
2013-03-30 02:34:00,37.9,27.2,30.17,ESE,105,0.0,1.0,65,0.00,,---,0.00,VWS V13.01,2013-03-30 08:34:00,
2013-03-30 02:39:00,37.9,27.2,30.17,ENE,76,0.0,3.0,65,0.00,,---,0.00,VWS V13.01,2013-03-30 08:39:00,
2013-03-30 02:44:00,37.9,27.2,30.17,ENE,76,0.0,0.0,65,0.00,,---,0.00,VWS V13.01,2013-03-30 08:44:00,
2013-03-30 02:50:00,37.9,27.6,30.17,ENE,74,0.0,4.0,66,0.00,,---,0.00,VWS V13.01,2013-03-30 08:50:00,
2013-03-30 02:55:00,37.9,27.2,30.17,ENE,74,0.0,0.0,65,0.00,,---,0.00,VWS V13.01,2013-03-30 08:55:00,
2013-03-30 03:00:00,37.8,27.5,30.16,ENE,74,0.0,1.0,66,0.00,,---,0.00,VWS V13.01,2013-03-30 09:00:00,
2013-03-30 03:06:00,37.6,27.6,30.16,ENE,74,0.0,2.0,67,0.00,,---,0.00,VWS V13.01,2013-03-30 09:06:00,
2013-03-30 03:11:00,37.8,27.8,30.16,ENE,74,0.0,0.0,67,0.00,,---,0.00,VWS V13.01,2013-03-30 09:11:00,
2013-03-30 03:16:00,37.8,27.8,30.16,ENE,74,0.0,0.0,67,0.00,,---,0.00,VWS V13.01,2013-03-30 09:16:00,
2013-03-30 03:22:00,37.8,27.8,30.16,ENE,74,0.0,0.0,67,0.00,,---,0.00,VWS V13.01,2013-03-30 09:22:00,
2013-03-30 03:27:00,37.6,27.6,30.16,ENE,74,0.0,0.0,67,0.00,,---,0.00,VWS V13.01,2013-03-30 09:27:00,
2013-03-30 03:32:00,37.3,27.4,30.16,ENE,74,0.0,0.0,67,0.00,,---,0.00,VWS V13.01,2013-03-30 09:32:00,
2013-03-30 03:34:00,37.3,27.4,30.16,ENE,74,0.0,0.0,67,0.00,,---,0.00,VWS V13.01,2013-03-30 09:34:00,
2013-03-30 03:42:00,36.6,27.0,30.16,ENE,74,0.0,0.0,68,0.00,,---,0.00,VWS V13.01,2013-03-30 09:42:00,
2013-03-30 03:48:00,36.5,27.3,30.17,ENE,74,0.0,0.0,69,0.00,,---,0.00,VWS V13.01,2013-03-30 09:48:00,
2013-03-30 03:53:00,36.5,27.3,30.17,ENE,74,0.0,0.0,69,0.00,,---,0.00,VWS V13.01,2013-03-30 09:53:00,
2013-03-30 03:58:00,36.6,27.8,30.17,ENE,74,0.0,0.0,70,0.00,,---,0.00,VWS V13.01,2013-03-30 09:58:00,
2013-03-30 04:03:00,36.6,27.4,30.17,ENE,76,0.0,2.0,69,0.00,,---,0.00,VWS V13.01,2013-03-30 10:03:00,
2013-03-30 04:08:00,36.5,27.3,30.17,ENE,76,0.0,0.0,69,0.00,,---,0.00,VWS V13.01,2013-03-30 10:08:00,
2013-03-30 04:13:00,36.5,27.7,30.17,SSE,157,0.0,11.0,70,0.00,,---,0.00,VWS V13.01,2013-03-30 10:13:00,
2013-03-30 04:19:00,36.5,27.3,30.18,ENE,76,0.0,2.0,69,0.00,,---,0.00,VWS V13.01,2013-03-30 10:19:00,
2013-03-30 04:24:00,36.8,27.6,30.18,ENE,76,0.0,0.0,69,0.00,,---,0.00,VWS V13.01,2013-03-30 10:24:00,
2013-03-30 04:29:00,36.8,27.2,30.18,NNE,22,0.0,4.0,68,0.00,,---,0.00,VWS V13.01,2013-03-30 10:29:00,
2013-03-30 04:34:00,36.9,27.3,30.18,ENE,78,2.0,2.0,68,0.00,,---,0.00,VWS V13.01,2013-03-30 10:34:00,
2013-03-30 04:39:00,36.9,27.3,30.18,East,79,0.0,1.0,68,0.00,,---,0.00,VWS V13.01,2013-03-30 10:39:00,
2013-03-30 04:44:00,37.0,27.4,30.18,ESE,110,0.0,2.0,68,0.00,,---,0.00,VWS V13.01,2013-03-30 10:44:00,
2013-03-30 04:50:00,36.9,27.3,30.18,ESE,119,0.0,0.0,68,0.00,,---,0.00,VWS V13.01,2013-03-30 10:50:00,
2013-03-30 04:55:00,36.9,27.3,30.18,ESE,119,0.0,0.0,68,0.00,,---,0.00,VWS V13.01,2013-03-30 10:55:00,
2013-03-30 05:00:00,36.6,27.0,30.18,East,98,0.0,2.0,68,0.00,,---,0.00,VWS V13.01,2013-03-30 11:00:00,
2013-03-30 05:05:00,36.6,27.0,30.18,East,98,0.0,0.0,68,0.00,,---,0.00,VWS V13.01,2013-03-30 11:05:00,
2013-03-30 05:10:00,36.5,27.0,30.18,East,98,0.0,0.0,68,0.00,,---,0.00,VWS V13.01,2013-03-30 11:10:00,
2013-03-30 05:16:00,36.0,26.5,30.17,East,98,0.0,0.0,68,0.00,,---,0.00,VWS V13.01,2013-03-30 11:16:00,
2013-03-30 05:21:00,35.8,26.6,30.17,East,98,0.0,0.0,69,0.00,,---,0.00,VWS V13.01,2013-03-30 11:21:00,
2013-03-30 05:26:00,35.5,26.7,30.17,East,98,0.0,0.0,70,0.00,,---,0.00,VWS V13.01,2013-03-30 11:26:00,
2013-03-30 05:31:00,35.3,26.5,30.18,East,98,0.0,0.0,70,0.00,,---,0.00,VWS V13.01,2013-03-30 11:31:00,
2013-03-30 05:36:00,35.3,26.5,30.18,East,98,0.0,0.0,70,0.00,,---,0.00,VWS V13.01,2013-03-30 11:36:00,
2013-03-30 05:42:00,35.3,26.9,30.18,East,98,0.0,0.0,71,0.00,,---,0.00,VWS V13.01,2013-03-30 11:42:00,
2013-03-30 05:47:00,35.5,26.7,30.18,East,98,1.0,2.0,70,0.00,,---,0.00,VWS V13.01,2013-03-30 11:47:00,
2013-03-30 05:52:00,35.9,26.4,30.18,NNE,28,0.0,4.0,68,0.00,,---,0.00,VWS V13.01,2013-03-30 11:52:00,
2013-03-30 05:58:00,36.5,27.0,30.18,NE,43,0.0,0.0,68,0.00,,---,0.00,VWS V13.01,2013-03-30 11:58:00,
2013-03-30 06:03:00,36.6,27.0,30.17,NE,43,0.0,0.0,68,0.00,,---,0.00,VWS V13.01,2013-03-30 12:03:00,
2013-03-30 06:08:00,36.5,27.0,30.17,NE,43,0.0,0.0,68,0.00,,---,0.00,VWS V13.01,2013-03-30 12:08:00,
2013-03-30 06:14:00,36.5,27.0,30.17,NE,43,0.0,0.0,68,0.00,,---,0.00,VWS V13.01,2013-03-30 12:14:00,
2013-03-30 06:19:00,36.3,26.8,30.20,NE,43,0.0,0.0,68,0.00,,---,0.00,VWS V13.01,2013-03-30 12:19:00,
2013-03-30 06:24:00,36.0,26.5,30.20,NE,43,0.0,0.0,68,0.00,,---,0.00,VWS V13.01,2013-03-30 12:24:00,
2013-03-30 06:30:00,35.8,26.3,30.20,East,96,0.0,2.0,68,0.00,,---,0.00,VWS V13.01,2013-03-30 12:30:00,
2013-03-30 06:35:00,35.5,26.0,30.20,East,90,0.0,1.0,68,0.00,,---,0.00,VWS V13.01,2013-03-30 12:35:00,
2013-03-30 06:41:00,35.3,25.8,30.20,East,90,0.0,1.0,68,0.00,,---,0.00,VWS V13.01,2013-03-30 12:41:00,
2013-03-30 06:46:00,35.0,25.9,30.20,East,90,0.0,0.0,69,0.00,,---,0.00,VWS V13.01,2013-03-30 12:46:00,
2013-03-30 06:51:00,34.7,25.9,30.20,East,90,0.0,0.0,70,0.00,,---,0.00,VWS V13.01,2013-03-30 12:51:00,
2013-03-30 06:57:00,34.4,25.6,30.20,East,95,0.0,0.0,70,0.00,,---,0.00,VWS V13.01,2013-03-30 12:57:00,
2013-03-30 07:02:00,34.4,26.0,30.20,East,95,0.0,0.0,71,0.00,,---,0.00,VWS V13.01,2013-03-30 13:02:00,
2013-03-30 07:07:00,34.6,26.2,30.20,North,355,0.0,0.0,71,0.00,,---,0.00,VWS V13.01,2013-03-30 13:07:00,
2013-03-30 07:12:00,34.7,26.3,30.20,NNE,32,0.0,0.0,71,0.00,,---,0.00,VWS V13.01,2013-03-30 13:12:00,
2013-03-30 07:17:00,34.9,26.5,30.22,ENE,76,2.0,2.0,71,0.00,,---,0.00,VWS V13.01,2013-03-30 13:17:00,
2013-03-30 07:23:00,34.9,26.1,30.22,NNE,32,0.0,0.0,70,0.00,,---,0.00,VWS V13.01,2013-03-30 13:23:00,
2013-03-30 07:28:00,35.0,26.6,30.22,NE,51,0.0,0.0,71,0.00,,---,0.00,VWS V13.01,2013-03-30 13:28:00,
2013-03-30 07:33:00,35.0,26.6,30.22,ENE,65,2.0,3.0,71,0.00,,---,0.00,VWS V13.01,2013-03-30 13:33:00,
2013-03-30 07:38:00,35.2,26.8,30.22,East,97,0.0,0.0,71,0.00,,---,0.00,VWS V13.01,2013-03-30 13:38:00,
2013-03-30 07:43:00,35.3,26.9,30.22,ENE,76,0.0,4.0,71,0.00,,---,0.00,VWS V13.01,2013-03-30 13:43:00,
2013-03-30 07:49:00,35.5,26.7,30.23,North,11,0.0,3.0,70,0.00,,---,0.00,VWS V13.01,2013-03-30 13:49:00,
2013-03-30 07:54:00,35.8,27.0,30.23,NNE,29,2.0,2.0,70,0.00,,---,0.00,VWS V13.01,2013-03-30 13:54:00,
2013-03-30 07:59:00,36.0,26.8,30.23,ESE,103,0.0,4.0,69,0.00,,---,0.00,VWS V13.01,2013-03-30 13:59:00,
2013-03-30 08:04:00,36.5,27.0,30.22,NE,43,0.0,3.0,68,0.00,,---,0.00,VWS V13.01,2013-03-30 14:04:00,
2013-03-30 08:10:00,36.9,27.0,30.22,ENE,76,3.0,3.0,67,0.00,,---,0.00,VWS V13.01,2013-03-30 14:10:00,
2013-03-30 08:15:00,37.2,26.9,30.24,ENE,63,0.0,4.0,66,0.00,,---,0.00,VWS V13.01,2013-03-30 14:15:00,
2013-03-30 08:20:00,37.5,27.2,30.24,ENE,73,2.0,4.0,66,0.00,,---,0.00,VWS V13.01,2013-03-30 14:20:00,
2013-03-30 08:25:00,37.8,27.1,30.24,NW,319,0.0,7.0,65,0.00,,---,0.00,VWS V13.01,2013-03-30 14:25:00,
2013-03-30 08:31:00,38.3,26.8,30.23,ENE,75,0.0,4.0,63,0.00,,---,0.00,VWS V13.01,2013-03-30 14:31:00,
2013-03-30 08:36:00,38.8,27.3,30.23,NE,36,1.0,5.0,63,0.00,,---,0.00,VWS V13.01,2013-03-30 14:36:00,
2013-03-30 08:42:00,39.1,27.2,30.23,ENE,60,1.0,3.0,62,0.00,,---,0.00,VWS V13.01,2013-03-30 14:42:00,
2013-03-30 08:47:00,39.3,27.0,30.23,NNE,32,0.0,0.0,61,0.00,,---,0.00,VWS V13.01,2013-03-30 14:47:00,
2013-03-30 08:52:00,39.6,27.3,30.23,NE,56,0.0,1.0,61,0.00,,---,0.00,VWS V13.01,2013-03-30 14:52:00,
2013-03-30 08:57:00,39.9,27.2,30.23,ESE,105,0.0,3.0,60,0.00,,---,0.00,VWS V13.01,2013-03-30 14:57:00,
2013-03-30 09:02:00,40.2,27.4,30.23,NE,53,0.0,2.0,60,0.00,,---,0.00,VWS V13.01,2013-03-30 15:02:00,
2013-03-30 09:08:00,40.5,26.9,30.23,North,360,1.0,5.0,58,0.00,,---,0.00,VWS V13.01,2013-03-30 15:08:00,
2013-03-30 09:14:00,40.8,26.8,30.23,NNW,331,0.0,3.0,57,0.00,,---,0.00,VWS V13.01,2013-03-30 15:14:00,
2013-03-30 09:19:00,41.3,27.2,30.23,NW,326,0.0,3.0,57,0.00,,---,0.00,VWS V13.01,2013-03-30 15:19:00,
2013-03-30 09:24:00,41.6,27.1,30.23,NNW,338,2.0,4.0,56,0.00,,---,0.00,VWS V13.01,2013-03-30 15:24:00,
2013-03-30 09:29:00,41.8,26.8,30.23,WNW,296,0.0,5.0,55,0.00,,---,0.00,VWS V13.01,2013-03-30 15:29:00,
2013-03-30 09:35:00,42.2,26.8,30.22,ESE,105,0.0,5.0,54,0.00,,---,0.00,VWS V13.01,2013-03-30 15:35:00,
2013-03-30 09:40:00,42.5,27.5,30.22,East,97,0.0,1.0,55,0.00,,---,0.00,VWS V13.01,2013-03-30 15:40:00,
2013-03-30 09:46:00,42.6,26.7,30.22,NW,310,0.0,5.0,53,0.00,,---,0.00,VWS V13.01,2013-03-30 15:46:00,
2013-03-30 09:51:00,42.8,27.3,30.22,NE,38,0.0,4.0,54,0.00,,---,0.00,VWS V13.01,2013-03-30 15:51:00,
2013-03-30 09:56:00,43.1,26.7,30.22,North,5,3.0,6.0,52,0.00,,---,0.00,VWS V13.01,2013-03-30 15:56:00,
2013-03-30 10:02:00,43.3,26.9,30.22,North,11,0.0,4.0,52,0.00,,---,0.00,VWS V13.01,2013-03-30 16:02:00,
2013-03-30 10:07:00,43.6,26.7,30.22,NNE,13,0.0,2.0,51,0.00,,---,0.00,VWS V13.01,2013-03-30 16:07:00,
2013-03-30 10:12:00,44.1,27.1,30.22,ENE,71,2.0,3.0,51,0.00,,---,0.00,VWS V13.01,2013-03-30 16:12:00,
2013-03-30 10:17:00,44.5,27.0,30.22,NNE,30,0.0,2.0,50,0.00,,---,0.00,VWS V13.01,2013-03-30 16:17:00,
2013-03-30 10:22:00,44.9,26.9,30.22,North,11,0.0,4.0,49,0.00,,---,0.00,VWS V13.01,2013-03-30 16:22:00,
2013-03-30 10:27:00,45.2,27.2,30.22,ESE,105,0.0,1.0,49,0.00,,---,0.00,VWS V13.01,2013-03-30 16:27:00,
2013-03-30 10:33:00,45.2,26.7,30.22,NNE,28,1.0,9.0,48,0.00,,---,0.00,VWS V13.01,2013-03-30 16:33:00,
2013-03-30 10:38:00,45.4,26.9,30.22,SW,236,0.0,1.0,48,0.00,,---,0.00,VWS V13.01,2013-03-30 16:38:00,
2013-03-30 10:43:00,45.8,26.7,30.22,NE,52,1.0,5.0,47,0.00,,---,0.00,VWS V13.01,2013-03-30 16:43:00,
2013-03-30 10:48:00,46.1,26.5,30.22,ENE,76,0.0,7.0,46,0.00,,---,0.00,VWS V13.01,2013-03-30 16:48:00,
2013-03-30 10:53:00,46.2,27.1,30.22,NNE,26,1.0,5.0,47,0.00,,---,0.00,VWS V13.01,2013-03-30 16:53:00,
2013-03-30 10:58:00,46.5,26.9,30.22,South,177,0.0,4.0,46,0.00,,---,0.00,VWS V13.01,2013-03-30 16:58:00,
2013-03-30 11:04:00,46.4,26.2,30.20,West,273,0.0,4.0,45,0.00,,---,0.00,VWS V13.01,2013-03-30 17:04:00,
2013-03-30 11:09:00,46.7,26.5,30.20,SW,235,3.0,3.0,45,0.00,,---,0.00,VWS V13.01,2013-03-30 17:09:00,
2013-03-30 11:14:00,46.8,26.6,30.20,WSW,246,0.0,7.0,45,0.00,,---,0.00,VWS V13.01,2013-03-30 17:14:00,
2013-03-30 11:19:00,46.5,25.8,30.22,WSW,244,0.0,5.0,44,0.00,,---,0.00,VWS V13.01,2013-03-30 17:19:00,
2013-03-30 11:25:00,46.7,26.5,30.22,NE,35,0.0,3.0,45,0.00,,---,0.00,VWS V13.01,2013-03-30 17:25:00,
2013-03-30 11:30:00,47.1,24.6,30.22,South,180,0.0,7.0,41,0.00,,---,0.00,VWS V13.01,2013-03-30 17:30:00,
2013-03-30 11:35:00,47.1,25.2,30.22,SSW,194,0.0,1.0,42,0.00,,---,0.00,VWS V13.01,2013-03-30 17:35:00,
2013-03-30 11:40:00,47.1,25.2,30.22,North,355,0.0,6.0,42,0.00,,---,0.00,VWS V13.01,2013-03-30 17:40:00,
2013-03-30 11:46:00,47.0,25.1,30.22,NNE,19,0.0,3.0,42,0.00,,---,0.00,VWS V13.01,2013-03-30 17:46:00,
2013-03-30 11:51:00,47.1,26.3,30.22,SW,223,0.0,3.0,44,0.00,,---,0.00,VWS V13.01,2013-03-30 17:51:00,
2013-03-30 11:56:00,47.6,24.5,30.22,North,355,0.0,5.0,40,0.00,,---,0.00,VWS V13.01,2013-03-30 17:56:00,
2013-03-30 12:01:00,48.0,23.6,30.22,North,360,0.0,3.0,38,0.00,,---,0.00,VWS V13.01,2013-03-30 18:01:00,
2013-03-30 12:06:00,48.0,23.6,30.22,SW,227,1.0,6.0,38,0.00,,---,0.00,VWS V13.01,2013-03-30 18:06:00,
2013-03-30 12:12:00,47.7,24.0,30.22,East,91,0.0,0.0,39,0.00,,---,0.00,VWS V13.01,2013-03-30 18:12:00,
2013-03-30 12:17:00,47.7,23.4,30.23,NE,44,5.0,5.0,38,0.00,,---,0.00,VWS V13.01,2013-03-30 18:17:00,
2013-03-30 12:22:00,47.6,22.6,30.23,WSW,257,0.0,1.0,37,0.00,,---,0.00,VWS V13.01,2013-03-30 18:22:00,
2013-03-30 12:27:00,47.7,24.0,30.23,West,265,1.0,2.0,39,0.00,,---,0.00,VWS V13.01,2013-03-30 18:27:00,
2013-03-30 12:33:00,48.3,21.9,30.23,WSW,254,0.0,4.0,35,0.00,,---,0.00,VWS V13.01,2013-03-30 18:33:00,
2013-03-30 12:38:00,48.9,22.5,30.23,West,269,0.0,5.0,35,0.00,,---,0.00,VWS V13.01,2013-03-30 18:38:00,
2013-03-30 12:43:00,48.9,22.5,30.23,East,96,0.0,1.0,35,0.00,,---,0.00,VWS V13.01,2013-03-30 18:43:00,
2013-03-30 12:48:00,49.1,23.3,30.22,SW,229,1.0,7.0,36,0.00,,---,0.00,VWS V13.01,2013-03-30 18:48:00,
2013-03-30 12:54:00,48.9,23.1,30.22,WSW,254,0.0,5.0,36,0.00,,---,0.00,VWS V13.01,2013-03-30 18:54:00,
2013-03-30 12:59:00,49.1,23.3,30.22,West,275,0.0,3.0,36,0.00,,---,0.00,VWS V13.01,2013-03-30 18:59:00,
2013-03-30 13:04:00,49.4,23.6,30.21,WSW,251,1.0,7.0,36,0.00,,---,0.00,VWS V13.01,2013-03-30 19:04:00,
2013-03-30 13:09:00,50.1,23.5,30.21,West,264,0.0,5.0,35,0.00,,---,0.00,VWS V13.01,2013-03-30 19:09:00,
2013-03-30 13:15:00,50.5,23.2,30.21,North,9,2.0,3.0,34,0.00,,---,0.00,VWS V13.01,2013-03-30 19:15:00,
2013-03-30 13:20:00,50.5,22.5,30.22,North,355,0.0,3.0,33,0.00,,---,0.00,VWS V13.01,2013-03-30 19:20:00,
2013-03-30 13:25:00,51.1,23.0,30.22,West,270,0.0,2.0,33,0.00,,---,0.00,VWS V13.01,2013-03-30 19:25:00,
2013-03-30 13:30:00,52.3,22.6,30.22,NE,38,1.0,5.0,31,0.00,,---,0.00,VWS V13.01,2013-03-30 19:30:00,
2013-03-30 13:35:00,52.9,21.5,30.19,West,273,1.0,5.0,29,0.00,,---,0.00,VWS V13.01,2013-03-30 19:35:00,
2013-03-30 13:41:00,52.0,22.3,30.19,WNW,284,0.0,3.0,31,0.00,,---,0.00,VWS V13.01,2013-03-30 19:41:00,
2013-03-30 13:46:00,51.9,22.2,30.19,NE,38,1.0,5.0,31,0.00,,---,0.00,VWS V13.01,2013-03-30 19:46:00,
2013-03-30 13:51:00,52.3,21.0,30.19,South,183,0.0,7.0,29,0.00,,---,0.00,VWS V13.01,2013-03-30 19:51:00,
2013-03-30 13:56:00,52.9,21.5,30.19,NE,42,0.0,4.0,29,0.00,,---,0.00,VWS V13.01,2013-03-30 19:56:00,
2013-03-30 14:01:00,53.6,25.2,30.18,SW,228,0.0,5.0,33,0.00,,---,0.00,VWS V13.01,2013-03-30 20:01:00,
2013-03-30 14:06:00,54.5,22.9,30.18,NNE,19,0.0,7.0,29,0.00,,---,0.00,VWS V13.01,2013-03-30 20:06:00,
2013-03-30 14:12:00,56.0,21.6,30.18,North,5,2.0,2.0,26,0.00,,---,0.00,VWS V13.01,2013-03-30 20:12:00,
2013-03-30 14:17:00,56.3,22.8,30.17,North,10,0.0,5.0,27,0.00,,---,0.00,VWS V13.01,2013-03-30 20:17:00,
2013-03-30 14:23:00,55.9,21.5,30.17,WSW,243,3.0,3.0,26,0.00,,---,0.00,VWS V13.01,2013-03-30 20:23:00,
2013-03-30 14:28:00,54.4,21.1,30.17,North,10,0.0,0.0,27,0.00,,---,0.00,VWS V13.01,2013-03-30 20:28:00,
2013-03-30 14:33:00,54.4,22.0,30.17,ENE,71,0.0,4.0,28,0.00,,---,0.00,VWS V13.01,2013-03-30 20:33:00,
2013-03-30 14:38:00,54.8,22.3,30.17,West,263,3.0,5.0,28,0.00,,---,0.00,VWS V13.01,2013-03-30 20:38:00,
2013-03-30 14:44:00,55.1,22.6,30.17,ENE,78,0.0,2.0,28,0.00,,---,0.00,VWS V13.01,2013-03-30 20:44:00,
2013-03-30 14:49:00,55.9,21.5,30.17,North,9,6.0,6.0,26,0.00,,---,0.00,VWS V13.01,2013-03-30 20:49:00,
2013-03-30 14:54:00,56.5,22.0,30.17,WSW,249,0.0,3.0,26,0.00,,---,0.00,VWS V13.01,2013-03-30 20:54:00,
2013-03-30 14:59:00,56.5,22.0,30.17,North,355,1.0,6.0,26,0.00,,---,0.00,VWS V13.01,2013-03-30 20:59:00,
2013-03-30 15:05:00,57.8,22.2,30.15,NE,41,0.0,2.0,25,0.00,,---,0.00,VWS V13.01,2013-03-30 21:05:00,
2013-03-30 15:10:00,57.8,22.2,30.15,North,350,4.0,12.0,25,0.00,,---,0.00,VWS V13.01,2013-03-30 21:10:00,
2013-03-30 15:15:00,57.6,23.0,30.15,NNW,340,0.0,4.0,26,0.00,,---,0.00,VWS V13.01,2013-03-30 21:15:00,
2013-03-30 15:20:00,57.8,22.2,30.15,NNE,19,0.0,5.0,25,0.00,,---,0.00,VWS V13.01,2013-03-30 21:20:00,
2013-03-30 15:26:00,58.1,21.5,30.15,NNW,345,4.0,10.0,24,0.00,,---,0.00,VWS V13.01,2013-03-30 21:26:00,
2013-03-30 15:31:00,58.6,21.9,30.13,NNE,20,2.0,7.0,24,0.00,,---,0.00,VWS V13.01,2013-03-30 21:31:00,
2013-03-30 15:36:00,58.6,23.8,30.13,NNW,344,0.0,4.0,26,0.00,,---,0.00,VWS V13.01,2013-03-30 21:36:00,
2013-03-30 15:42:00,57.3,21.8,30.13,WSW,237,1.0,2.0,25,0.00,,---,0.00,VWS V13.01,2013-03-30 21:42:00,
2013-03-30 15:48:00,55.4,22.0,30.15,SW,225,0.0,2.0,27,0.00,,---,0.00,VWS V13.01,2013-03-30 21:48:00,
2013-03-30 15:53:00,54.4,22.0,30.15,NNE,15,0.0,1.0,28,0.00,,---,0.00,VWS V13.01,2013-03-30 21:53:00,
2013-03-30 15:58:00,54.4,21.1,30.15,WNW,292,1.0,5.0,27,0.00,,---,0.00,VWS V13.01,2013-03-30 21:58:00,
2013-03-30 16:04:00,54.7,21.4,30.15,NNE,27,0.0,3.0,27,0.00,,---,0.00,VWS V13.01,2013-03-30 22:04:00,
2013-03-30 16:09:00,55.1,20.9,30.15,NNE,30,2.0,5.0,26,0.00,,---,0.00,VWS V13.01,2013-03-30 22:09:00,
2013-03-30 16:14:00,55.1,21.7,30.15,WSW,252,0.0,5.0,27,0.00,,---,0.00,VWS V13.01,2013-03-30 22:14:00,
2013-03-30 16:19:00,54.8,20.6,30.14,SE,128,0.0,4.0,26,0.00,,---,0.00,VWS V13.01,2013-03-30 22:19:00,
2013-03-30 16:24:00,55.0,21.6,30.14,NE,46,0.0,6.0,27,0.00,,---,0.00,VWS V13.01,2013-03-30 22:24:00,
2013-03-30 16:29:00,55.9,20.6,30.14,East,92,1.0,3.0,25,0.00,,---,0.00,VWS V13.01,2013-03-30 22:29:00,
2013-03-30 16:35:00,56.5,21.1,30.13,NW,326,0.0,2.0,25,0.00,,---,0.00,VWS V13.01,2013-03-30 22:35:00,
2013-03-30 16:40:00,56.3,21.9,30.13,NE,51,0.0,4.0,26,0.00,,---,0.00,VWS V13.01,2013-03-30 22:40:00,
2013-03-30 16:45:00,55.7,21.4,30.12,WNW,300,1.0,6.0,26,0.00,,---,0.00,VWS V13.01,2013-03-30 22:45:00,
2013-03-30 16:51:00,54.8,21.5,30.12,South,187,0.0,5.0,27,0.00,,---,0.00,VWS V13.01,2013-03-30 22:51:00,
2013-03-30 16:56:00,54.7,20.5,30.12,NW,320,3.0,6.0,26,0.00,,---,0.00,VWS V13.01,2013-03-30 22:56:00,
2013-03-30 17:01:00,55.0,20.8,30.12,NE,34,0.0,5.0,26,0.00,,---,0.00,VWS V13.01,2013-03-30 23:01:00,
2013-03-30 17:06:00,55.4,21.1,30.12,WSW,256,1.0,3.0,26,0.00,,---,0.00,VWS V13.01,2013-03-30 23:06:00,
2013-03-30 17:11:00,55.7,21.4,30.12,North,5,1.0,1.0,26,0.00,,---,0.00,VWS V13.01,2013-03-30 23:11:00,
2013-03-30 17:17:00,56.2,21.8,30.11,NNE,15,0.0,0.0,26,0.00,,---,0.00,VWS V13.01,2013-03-30 23:17:00,
2013-03-30 17:22:00,56.2,20.9,30.11,North,350,0.0,1.0,25,0.00,,---,0.00,VWS V13.01,2013-03-30 23:22:00,
2013-03-30 17:27:00,55.6,20.4,30.11,North,350,0.0,0.0,25,0.00,,---,0.00,VWS V13.01,2013-03-30 23:27:00,
2013-03-30 17:32:00,54.8,21.5,30.10,South,173,0.0,1.0,27,0.00,,---,0.00,VWS V13.01,2013-03-30 23:32:00,
2013-03-30 17:38:00,54.2,21.0,30.10,North,355,0.0,4.0,27,0.00,,---,0.00,VWS V13.01,2013-03-30 23:38:00,
2013-03-30 17:43:00,54.1,20.9,30.10,NNE,22,1.0,1.0,27,0.00,,---,0.00,VWS V13.01,2013-03-30 23:43:00,
2013-03-30 17:49:00,53.8,19.7,30.11,South,180,0.0,1.0,26,0.00,,---,0.00,VWS V13.01,2013-03-30 23:49:00,
2013-03-30 17:54:00,53.3,20.2,30.11,SSE,165,0.0,0.0,27,0.00,,---,0.00,VWS V13.01,2013-03-30 23:54:00,
2013-03-30 17:59:00,53.1,20.0,30.11,WNW,294,0.0,1.0,27,0.00,,---,0.00,VWS V13.01,2013-03-30 23:59:00,
2013-03-30 18:04:00,53.1,20.0,30.11,NNE,13,0.0,3.0,27,0.00,,---,0.00,VWS V13.01,2013-03-31 00:04:00,
2013-03-30 18:10:00,52.9,19.9,30.11,NW,311,0.0,2.0,27,0.00,,---,0.00,VWS V13.01,2013-03-31 00:10:00,
2013-03-30 18:15:00,52.8,19.8,30.13,NNE,13,0.0,2.0,27,0.00,,---,0.00,VWS V13.01,2013-03-31 00:15:00,
2013-03-30 18:20:00,52.5,19.5,30.13,ESE,116,0.0,1.0,27,0.00,,---,0.00,VWS V13.01,2013-03-31 00:20:00,
2013-03-30 18:26:00,52.0,19.1,30.13,NE,34,0.0,1.0,27,0.00,,---,0.00,VWS V13.01,2013-03-31 00:26:00,
2013-03-30 18:31:00,51.7,18.8,30.12,North,5,0.0,7.0,27,0.00,,---,0.00,VWS V13.01,2013-03-31 00:31:00,
2013-03-30 18:36:00,51.7,19.7,30.12,NNE,15,0.0,2.0,28,0.00,,---,0.00,VWS V13.01,2013-03-31 00:36:00,
2013-03-30 18:41:00,51.4,18.6,30.12,NNE,15,0.0,0.0,27,0.00,,---,0.00,VWS V13.01,2013-03-31 00:41:00,
2013-03-30 18:47:00,50.8,19.7,30.13,SSE,160,0.0,2.0,29,0.00,,---,0.00,VWS V13.01,2013-03-31 00:47:00,
2013-03-30 18:52:00,50.7,18.8,30.13,South,188,0.0,0.0,28,0.00,,---,0.00,VWS V13.01,2013-03-31 00:52:00,
2013-03-30 18:57:00,50.1,20.7,30.13,South,188,0.0,0.0,31,0.00,,---,0.00,VWS V13.01,2013-03-31 00:57:00,
2013-03-30 19:02:00,49.4,20.8,30.12,South,188,0.0,0.0,32,0.00,,---,0.00,VWS V13.01,2013-03-31 01:02:00,
2013-03-30 19:08:00,48.6,22.2,30.12,South,188,0.0,0.0,35,0.00,,---,0.00,VWS V13.01,2013-03-31 01:08:00,
2013-03-30 19:13:00,48.2,21.2,30.12,South,188,0.0,0.0,34,0.00,,---,0.00,VWS V13.01,2013-03-31 01:13:00,
2013-03-30 19:18:00,47.9,21.6,30.12,South,188,0.0,0.0,35,0.00,,---,0.00,VWS V13.01,2013-03-31 01:18:00,
2013-03-30 19:23:00,47.4,21.8,30.12,South,188,0.0,1.0,36,0.00,,---,0.00,VWS V13.01,2013-03-31 01:23:00,
2013-03-30 19:28:00,47.1,21.5,30.12,South,188,0.0,0.0,36,0.00,,---,0.00,VWS V13.01,2013-03-31 01:28:00,
2013-03-30 19:33:00,46.7,21.8,30.12,South,188,0.0,0.0,37,0.00,,---,0.00,VWS V13.01,2013-03-31 01:33:00,
2013-03-30 19:38:00,46.2,22.6,30.12,South,188,0.0,0.0,39,0.00,,---,0.00,VWS V13.01,2013-03-31 01:38:00,
2013-03-30 19:43:00,45.8,22.3,30.12,South,188,0.0,0.0,39,0.00,,---,0.00,VWS V13.01,2013-03-31 01:43:00,
2013-03-30 19:49:00,45.4,23.1,30.12,South,188,0.0,0.0,41,0.00,,---,0.00,VWS V13.01,2013-03-31 01:49:00,
2013-03-30 19:54:00,44.9,22.6,30.12,South,188,0.0,0.0,41,0.00,,---,0.00,VWS V13.01,2013-03-31 01:54:00,
2013-03-30 19:59:00,44.3,22.1,30.12,South,188,0.0,0.0,41,0.00,,---,0.00,VWS V13.01,2013-03-31 01:59:00,
2013-03-30 20:05:00,43.8,22.8,30.13,South,188,0.0,0.0,43,0.00,,---,0.00,VWS V13.01,2013-03-31 02:05:00,
2013-03-30 20:10:00,43.3,22.3,30.13,South,180,0.0,0.0,43,0.00,,---,0.00,VWS V13.01,2013-03-31 02:10:00,
2013-03-30 20:15:00,42.9,22.5,30.13,South,180,0.0,0.0,44,0.00,,---,0.00,VWS V13.01,2013-03-31 02:15:00,
2013-03-30 20:20:00,42.6,22.8,30.12,South,180,0.0,0.0,45,0.00,,---,0.00,VWS V13.01,2013-03-31 02:20:00,
2013-03-30 20:25:00,42.5,22.7,30.12,South,180,0.0,0.0,45,0.00,,---,0.00,VWS V13.01,2013-03-31 02:25:00,
2013-03-30 20:30:00,42.3,23.0,30.13,South,180,0.0,0.0,46,0.00,,---,0.00,VWS V13.01,2013-03-31 02:30:00,
2013-03-30 20:36:00,42.5,22.7,30.13,South,180,0.0,0.0,45,0.00,,---,0.00,VWS V13.01,2013-03-31 02:36:00,
2013-03-30 20:41:00,42.5,22.7,30.13,South,180,0.0,0.0,45,0.00,,---,0.00,VWS V13.01,2013-03-31 02:41:00,
2013-03-30 20:46:00,42.6,22.8,30.13,South,180,0.0,0.0,45,0.00,,---,0.00,VWS V13.01,2013-03-31 02:46:00,
2013-03-30 20:51:00,42.9,23.0,30.13,South,182,0.0,1.0,45,0.00,,---,0.00,VWS V13.01,2013-03-31 02:51:00,
2013-03-30 20:56:00,43.1,22.7,30.13,South,182,0.0,0.0,44,0.00,,---,0.00,VWS V13.01,2013-03-31 02:56:00,
2013-03-30 21:02:00,43.5,23.0,30.13,South,181,0.0,0.0,44,0.00,,---,0.00,VWS V13.01,2013-03-31 03:02:00,
2013-03-30 21:07:00,43.6,23.1,30.13,South,181,0.0,0.0,44,0.00,,---,0.00,VWS V13.01,2013-03-31 03:07:00,
2013-03-30 21:12:00,43.6,23.1,30.13,South,181,0.0,0.0,44,0.00,,---,0.00,VWS V13.01,2013-03-31 03:12:00,
2013-03-30 21:18:00,43.8,22.8,30.11,South,181,0.0,0.0,43,0.00,,---,0.00,VWS V13.01,2013-03-31 03:18:00,
2013-03-30 21:23:00,43.8,23.3,30.11,South,181,0.0,0.0,44,0.00,,---,0.00,VWS V13.01,2013-03-31 03:23:00,
2013-03-30 21:28:00,43.5,23.6,30.11,South,181,0.0,0.0,45,0.00,,---,0.00,VWS V13.01,2013-03-31 03:28:00,
2013-03-30 21:33:00,43.2,23.3,30.11,ESE,121,0.0,0.0,45,0.00,,---,0.00,VWS V13.01,2013-03-31 03:33:00,
2013-03-30 21:38:00,42.8,23.5,30.11,ESE,121,0.0,0.0,46,0.00,,---,0.00,VWS V13.01,2013-03-31 03:38:00,
2013-03-30 21:44:00,42.3,23.0,30.11,ESE,121,0.0,0.0,46,0.00,,---,0.00,VWS V13.01,2013-03-31 03:44:00,
2013-03-30 21:49:00,42.1,23.3,30.12,ESE,121,0.0,0.0,47,0.00,,---,0.00,VWS V13.01,2013-03-31 03:49:00,
2013-03-30 21:54:00,41.9,23.7,30.12,ESE,121,0.0,0.0,48,0.00,,---,0.00,VWS V13.01,2013-03-31 03:54:00,
2013-03-30 21:59:00,41.8,23.6,30.12,ESE,121,0.0,0.0,48,0.00,,---,0.00,VWS V13.01,2013-03-31 03:59:00,
2013-03-30 22:00:00,41.8,23.6,30.12,ESE,121,0.0,0.0,48,0.00,,---,0.00,VWS V13.01,2013-03-31 04:00:00,
2013-03-30 22:01:00,41.8,23.6,30.12,ESE,121,0.0,0.0,48,0.00,,---,0.00,VWS V13.01,2013-03-31 04:01:00,
2013-03-30 22:02:00,41.8,23.6,30.12,ESE,121,0.0,0.0,48,0.00,,---,0.00,VWS V13.01,2013-03-31 04:02:00,
2013-03-30 22:04:00,41.6,23.4,30.12,ESE,121,0.0,0.0,48,0.00,,---,0.00,VWS V13.01,2013-03-31 04:04:00,
2013-03-30 22:10:00,41.3,23.6,30.12,ESE,121,0.0,0.0,49,0.00,,---,0.00,VWS V13.01,2013-03-31 04:10:00,
2013-03-30 22:15:00,40.9,23.2,30.12,ESE,121,0.0,0.0,49,0.00,,---,0.00,VWS V13.01,2013-03-31 04:15:00,
2013-03-30 22:20:00,40.6,23.0,30.10,ESE,121,0.0,0.0,49,0.00,,---,0.00,VWS V13.01,2013-03-31 04:20:00,
2013-03-30 22:25:00,40.2,23.1,30.10,ESE,121,0.0,0.0,50,0.00,,---,0.00,VWS V13.01,2013-03-31 04:25:00,
2013-03-30 22:30:00,39.8,23.2,30.10,ESE,121,0.0,0.0,51,0.00,,---,0.00,VWS V13.01,2013-03-31 04:30:00,
2013-03-30 22:35:00,39.6,23.0,30.11,ESE,121,0.0,0.0,51,0.00,,---,0.00,VWS V13.01,2013-03-31 04:35:00,
2013-03-30 22:41:00,39.3,22.7,30.11,ESE,121,0.0,0.0,51,0.00,,---,0.00,VWS V13.01,2013-03-31 04:41:00,
2013-03-30 22:46:00,39.2,22.6,30.10,ESE,121,0.0,0.0,51,0.00,,---,0.00,VWS V13.01,2013-03-31 04:46:00,
2013-03-30 22:51:00,39.1,23.0,30.10,ESE,121,0.0,0.0,52,0.00,,---,0.00,VWS V13.01,2013-03-31 04:51:00,
2013-03-30 22:57:00,38.9,22.8,30.10,ESE,121,0.0,0.0,52,0.00,,---,0.00,VWS V13.01,2013-03-31 04:57:00,
2013-03-30 23:02:00,38.8,22.7,30.10,ESE,121,0.0,0.0,52,0.00,,---,0.00,VWS V13.01,2013-03-31 05:02:00,
2013-03-30 23:07:00,38.5,22.9,30.10,ESE,121,0.0,0.0,53,0.00,,---,0.00,VWS V13.01,2013-03-31 05:07:00,
2013-03-30 23:12:00,38.5,22.9,30.10,ESE,121,0.0,0.0,53,0.00,,---,0.00,VWS V13.01,2013-03-31 05:12:00,
2013-03-30 23:17:00,38.0,22.9,30.10,ESE,121,0.0,0.0,54,0.00,,---,0.00,VWS V13.01,2013-03-31 05:17:00,
2013-03-30 23:23:00,37.9,22.8,30.10,ESE,121,0.0,0.0,54,0.00,,---,0.00,VWS V13.01,2013-03-31 05:23:00,
2013-03-30 23:28:00,37.6,22.5,30.10,ESE,121,0.0,0.0,54,0.00,,---,0.00,VWS V13.01,2013-03-31 05:28:00,
2013-03-30 23:33:00,37.5,22.8,30.10,ESE,121,0.0,0.0,55,0.00,,---,0.00,VWS V13.01,2013-03-31 05:33:00,
2013-03-30 23:38:00,37.5,22.8,30.10,ESE,121,0.0,0.0,55,0.00,,---,0.00,VWS V13.01,2013-03-31 05:38:00,
2013-03-30 23:43:00,37.6,22.9,30.10,ESE,121,0.0,0.0,55,0.00,,---,0.00,VWS V13.01,2013-03-31 05:43:00,
2013-03-30 23:49:00,37.8,23.1,30.09,ESE,121,0.0,0.0,55,0.00,,---,0.00,VWS V13.01,2013-03-31 05:49:00,
2013-03-30 23:54:00,37.8,23.1,30.09,ESE,121,0.0,0.0,55,0.00,,---,0.00,VWS V13.01,2013-03-31 05:54:00,
2013-03-30 23:59:00,37.6,22.5,30.09,ESE,121,0.0,0.0,54,0.00,,---,0.00,VWS V13.01,2013-03-31 05:59:00,